N0ZMJ-3 Weather Reports


Display with metric or nautical units.
time (UTC)temp
F
wind
direction
speed
MPH
gust
MPH
rain 1hr
in
rain 24hr
in
rain mn
in
humidity
%
barometer
mb
20260902062800 65 92 0.0 0.0 0.00 0.02 0.00 100 1010.3
20260902062428 65 92 0.0 0.0 0.00 0.02 0.00 100 1010.5
20260902062100 65 92 0.0 0.0 0.00 0.02 0.00 100 1010.5
20260902061428 65 92 0.0 1.0 0.00 0.02 0.00 100 1010.5
20260902061400 65 92 0.0 1.0 0.00 0.02 0.00 100 1010.5
20260902060701 65 92 0.0 1.0 0.00 0.02 0.00 100 1010.6
20260902060428 65 92 0.0 1.0 0.00 0.02 0.00 100 1010.7
20260902060001 65 92 0.0 0.0 0.00 0.02 0.00 100 1010.8
20260902055428 65 92 0.0 1.0 0.00 0.02 0.00 100 1010.7
20260902054603 65 92 0.0 1.0 0.00 0.02 0.00 100 1010.7
20260902054428 66 92 0.0 1.0 0.00 0.02 0.00 100 1010.9
20260902053903 66 92 0.0 3.0 0.00 0.02 0.00 99 1011.1
20260902053428 66 92 1.0 3.0 0.00 0.02 0.00 99 1010.9
20260902053159 66 92 1.0 3.0 0.00 0.02 0.00 99 1010.9
20260902052502 66 92 0.0 1.0 0.00 0.02 0.00 99 1010.9
20260902052428 66 92 0.0 1.0 0.00 0.02 0.00 99 1010.9
20260902051801 67 92 0.0 1.0 0.00 0.02 0.00 98 1010.9
20260902051428 67 92 0.0 2.0 0.00 0.02 0.00 98 1010.9
20260902051101 67 92 0.0 2.0 0.00 0.02 0.00 98 1010.9
20260902050427 67 92 1.0 5.0 0.00 0.02 0.02 99 1010.8
20260902050359 67 92 1.0 5.0 0.00 0.02 0.02 99 1010.8
20260902045659 66 92 1.0 5.0 0.00 0.02 0.02 99 1010.7
20260902045427 66 90 3.0 5.0 0.00 0.02 0.02 100 1010.8
20260902044958 66 84 2.0 4.0 0.00 0.02 0.02 100 1010.8
20260902044427 66 84 1.0 3.0 0.00 0.02 0.02 100 1010.7
20260902044307 66 84 1.0 3.0 0.00 0.02 0.02 100 1010.7
20260902043558 66 84 2.0 3.0 0.00 0.02 0.02 100 1010.9
20260902043427 66 83 0.0 3.0 0.00 0.02 0.02 100 1011.0
20260902042858 66 83 1.0 3.0 0.00 0.02 0.02 100 1011.1
20260902042427 66 80 0.0 3.0 0.00 0.02 0.02 100 1011.3
20260902042203 66 80 0.0 3.0 0.00 0.02 0.02 100 1011.3
20260902041505 66 54 1.0 4.0 0.00 0.02 0.02 100 1011.5
20260902041429 66 54 1.0 4.0 0.00 0.02 0.02 100 1011.5
20260902040802 66 18 2.0 4.0 0.00 0.02 0.02 100 1011.5
20260902040427 66 360 0.0 0.0 0.00 0.02 0.02 100 1011.4
20260902035427 66 360 0.0 2.0 0.00 0.02 0.02 100 1011.4
20260902035400 66 360 0.0 2.0 0.00 0.02 0.02 100 1011.4
20260902034700 66 360 1.0 4.0 0.00 0.02 0.02 100 1011.5
20260902034427 66 360 1.0 4.0 0.00 0.02 0.02 100 1011.6
20260902034000 66 6 2.0 3.0 0.00 0.02 0.02 100 1011.5
20260902033427 66 8 0.0 2.0 0.00 0.02 0.02 100 1011.4
20260902033301 66 8 0.0 2.0 0.00 0.02 0.02 100 1011.4
20260902032603 66 8 1.0 2.0 0.00 0.02 0.02 100 1011.5
20260902032428 66 7 0.0 2.0 0.00 0.02 0.02 100 1011.5
20260902031905 66 8 0.0 3.0 0.00 0.02 0.02 100 1011.5
20260902031428 66 9 2.0 3.0 0.00 0.02 0.02 100 1011.4
20260902031200 66 9 2.0 3.0 0.00 0.02 0.02 100 1011.4
20260902030459 66 344 2.0 4.0 0.01 0.02 0.02 100 1011.8
20260902030428 66 344 2.0 4.0 0.01 0.02 0.02 100 1011.8
20260902025801 66 360 0.0 3.0 0.01 0.02 0.02 100 1011.9
20260902025427 67 360 1.0 3.0 0.01 0.02 0.02 100 1011.8
20260902025101 67 360 1.0 3.0 0.01 0.02 0.02 100 1011.8
20260902024427 67 51 2.0 8.0 0.01 0.02 0.02 99 1011.2
20260902024359 67 51 2.0 8.0 0.01 0.02 0.02 99 1011.2
20260902023659 67 95 4.0 8.0 0.01 0.02 0.02 99 1011.0
20260902023427 67 103 4.0 7.0 0.01 0.02 0.02 100 1011.2
20260902022958 67 94 3.0 8.0 0.01 0.02 0.02 100 1011.3
20260902022427 67 94 5.0 8.0 0.01 0.02 0.02 100 1011.5
20260902022301 67 94 5.0 8.0 0.01 0.02 0.02 100 1011.5
20260902021600 67 82 3.0 6.0 0.01 0.02 0.02 100 1011.8
20260902021429 67 66 1.0 2.0 0.00 0.01 0.01 100 1012.1
20260902020900 67 66 0.0 1.0 0.00 0.01 0.01 100 1012.1
20260902020428 67 66 0.0 2.0 0.01 0.01 0.01 100 1011.6
20260902020200 67 66 0.0 2.0 0.01 0.01 0.01 100 1011.6
20260902015501 67 66 1.0 2.0 0.01 0.01 0.01 100 1011.6
20260902015428 67 66 1.0 2.0 0.01 0.01 0.01 100 1011.6
20260902014800 67 66 0.0 1.0 0.00 0.00 0.00 100 1011.8
20260902014428 67 66 0.0 1.0 0.00 0.00 0.00 100 1011.9
20260902014106 67 66 0.0 1.0 0.00 0.00 0.00 100 1011.9
20260902013428 68 66 1.0 4.0 0.00 0.00 0.00 100 1010.9
20260902013400 68 66 1.0 4.0 0.00 0.00 0.00 100 1010.9
20260902012700 68 67 2.0 4.0 0.00 0.00 0.00 100 1010.7
20260902012428 68 67 1.0 2.0 0.00 0.00 0.00 99 1010.9
20260902012001 68 67 0.0 2.0 0.00 0.00 0.00 99 1011.3
20260902011428 68 67 0.0 2.0 0.00 0.00 0.00 98 1011.7
20260902011301 68 67 0.0 2.0 0.00 0.00 0.00 98 1011.7
20260902010601 69 67 0.0 1.0 0.00 0.00 0.00 98 1011.5
20260902010428 69 67 0.0 0.0 0.00 0.00 0.00 97 1011.6
20260902005900 69 67 0.0 2.0 0.00 0.00 0.00 97 1011.4
20260902005427 69 67 0.0 4.0 0.00 0.00 0.00 97 1011.1
20260902005200 69 67 0.0 4.0 0.00 0.00 0.00 97 1011.1
20260902004504 69 91 4.0 8.0 0.00 0.00 0.00 96 1011.3
20260902004428 69 91 4.0 8.0 0.00 0.00 0.00 96 1011.3
20260902003758 69 97 5.0 7.0 0.00 0.00 0.00 96 1011.4
20260902003427 69 97 2.0 3.0 0.00 0.00 0.00 96 1012.1
20260902003105 69 97 2.0 3.0 0.00 0.00 0.00 96 1012.1
20260902002427 69 109 0.0 2.0 0.00 0.00 0.00 96 1013.1
20260902002403 69 109 0.0 2.0 0.00 0.00 0.00 96 1013.1
20260902001700 70 108 1.0 4.0 0.00 0.00 0.00 94 1013.0
20260902001429 70 78 2.0 4.0 0.00 0.00 0.00 94 1012.3
20260902001000 70 51 0.0 3.0 0.00 0.00 0.00 94 1012.1
20260902000429 70 51 1.0 3.0 0.00 0.00 0.00 94 1011.7
20260902000259 70 51 1.0 3.0 0.00 0.00 0.00 94 1011.7
20260901235428 71 51 1.0 3.0 0.00 0.00 0.00 93 1011.9
20260901234859 71 51 2.0 4.0 0.00 0.00 0.00 92 1012.0
20260901234427 71 50 2.0 6.0 0.00 0.00 0.00 91 1012.0
20260901234200 71 50 2.0 6.0 0.00 0.00 0.00 91 1012.0
20260901233501 71 67 3.0 5.0 0.00 0.00 0.00 91 1012.2
20260901233427 71 67 3.0 5.0 0.00 0.00 0.00 91 1012.2
20260901232758 72 40 1.0 5.0 0.00 0.00 0.00 90 1012.4
20260901232427 72 37 1.0 3.0 0.00 0.00 0.00 89 1012.3
20260901232058 72 37 1.0 3.0 0.00 0.00 0.00 89 1012.3
20260901231427 72 37 1.0 2.0 0.00 0.00 0.00 88 1012.8
20260901231358 72 37 1.0 2.0 0.00 0.00 0.00 88 1012.8
20260901230702 72 37 0.0 2.0 0.00 0.00 0.00 88 1012.9
20260901230428 72 38 0.0 2.0 0.00 0.00 0.00 86 1013.2
20260901225959 73 38 0.0 2.0 0.00 0.00 0.00 84 1013.2
20260901225428 73 38 0.0 2.0 0.00 0.00 0.00 84 1013.1
20260901225306 73 38 0.0 2.0 0.00 0.00 0.00 84 1013.1
20260901224601 73 37 0.0 3.0 0.00 0.00 0.00 83 1012.9
20260901224427 74 38 0.0 3.0 0.00 0.00 0.00 83 1012.8
20260901223901 74 37 2.0 4.0 0.00 0.00 0.00 83 1012.6
20260901223427 74 37 2.0 4.0 0.00 0.00 0.00 83 1012.6
20260901223201 74 37 2.0 4.0 0.00 0.00 0.00 83 1012.6
20260901222502 74 16 1.0 3.0 0.00 0.00 0.00 86 1012.5
20260901222427 74 16 1.0 3.0 0.00 0.00 0.00 86 1012.5
20260901221758 74 16 1.0 4.0 0.00 0.00 0.00 86 1012.6
20260901221427 74 25 2.0 4.0 0.00 0.00 0.00 86 1012.4
20260901221059 74 25 2.0 4.0 0.00 0.00 0.00 86 1012.4
20260901220429 74 343 1.0 6.0 0.00 0.00 0.00 87 1012.7
20260901220400 74 343 1.0 6.0 0.00 0.00 0.00 87 1012.7
20260901215705 74 356 2.0 6.0 0.00 0.00 0.00 86 1012.8
20260901215429 75 360 1.0 4.0 0.00 0.00 0.00 85 1012.9
20260901215001 75 356 1.0 4.0 0.00 0.00 0.00 85 1012.9
20260901214428 75 2 2.0 5.0 0.00 0.00 0.00 82 1012.9
20260901214301 75 2 2.0 5.0 0.00 0.00 0.00 82 1012.9
20260901213559 75 88 3.0 5.0 0.00 0.00 0.00 83 1012.7
20260901213428 75 88 1.0 4.0 0.00 0.00 0.00 83 1012.7
20260901212859 75 87 2.0 4.0 0.00 0.00 0.00 83 1012.8
20260901212428 75 87 1.0 4.0 0.00 0.00 0.00 82 1012.9
20260901212200 75 87 1.0 4.0 0.00 0.00 0.00 82 1012.9
20260901211501 75 71 0.0 5.0 0.00 0.00 0.00 84 1012.9
20260901211428 75 71 0.0 5.0 0.00 0.00 0.00 84 1012.9
20260901210800 75 70 2.0 5.0 0.00 0.00 0.00 84 1012.5
20260901210428 75 64 3.0 5.0 0.00 0.00 0.00 83 1012.1
20260901210059 75 64 3.0 5.0 0.00 0.00 0.00 83 1012.1
20260901205428 75 336 1.0 2.0 0.00 0.00 0.00 79 1013.0
20260901205401 75 336 1.0 2.0 0.00 0.00 0.00 79 1013.0
20260901204700 76 337 0.0 0.0 0.00 0.00 0.00 80 1013.4
20260901204428 76 337 0.0 1.0 0.00 0.00 0.00 79 1013.5
20260901204000 76 337 0.0 2.0 0.00 0.00 0.00 77 1013.4
20260901203427 76 336 0.0 2.0 0.00 0.00 0.00 77 1013.1
20260901203300 76 336 0.0 2.0 0.00 0.00 0.00 77 1013.1
20260901202600 77 335 0.0 4.0 0.00 0.00 0.00 77 1013.1
20260901202427 77 313 1.0 4.0 0.00 0.00 0.00 76 1013.0
20260901201859 77 356 1.0 5.0 0.00 0.00 0.00 76 1012.9
20260901201427 77 52 2.0 5.0 0.00 0.00 0.00 75 1012.9
20260901201158 77 52 2.0 5.0 0.00 0.00 0.00 75 1012.9
20260901200502 77 24 1.0 5.0 0.00 0.00 0.00 74 1012.8
20260901200428 77 24 1.0 5.0 0.00 0.00 0.00 74 1012.8
20260901195759 77 56 2.0 5.0 0.00 0.00 0.00 75 1012.8
20260901195428 77 67 1.0 5.0 0.00 0.00 0.00 76 1012.8
20260901195100 77 67 1.0 5.0 0.00 0.00 0.00 76 1012.8
20260901194428 77 48 1.0 3.0 0.00 0.00 0.00 77 1012.8
20260901194404 77 48 1.0 3.0 0.00 0.00 0.00 77 1012.8
20260901193659 76 59 2.0 5.0 0.00 0.00 0.00 78 1012.8
20260901193427 76 65 2.0 5.0 0.00 0.00 0.00 81 1012.9
20260901193002 76 333 1.0 4.0 0.00 0.00 0.00 81 1013.0
20260901192427 76 27 1.0 3.0 0.00 0.00 0.00 79 1013.1
20260901192259 76 27 1.0 3.0 0.00 0.00 0.00 79 1013.1
20260901191559 76 42 1.0 3.0 0.00 0.00 0.00 79 1013.0
20260901191427 75 95 0.0 2.0 0.00 0.00 0.00 78 1013.1
20260901190858 76 95 0.0 2.0 0.00 0.00 0.00 77 1013.2
20260901190428 76 95 0.0 3.0 0.00 0.00 0.00 76 1013.0
20260901190159 76 95 0.0 3.0 0.00 0.00 0.00 76 1013.0
20260901185458 76 96 2.0 8.0 0.00 0.00 0.00 75 1013.0
20260901185427 76 96 2.0 8.0 0.00 0.00 0.00 75 1013.0
20260901184805 76 98 2.0 8.0 0.00 0.00 0.00 75 1012.8
20260901184429 76 111 3.0 8.0 0.00 0.00 0.00 76 1012.7
20260901184101 76 111 3.0 8.0 0.00 0.00 0.00 76 1012.7
20260901183429 76 101 4.0 8.0 0.00 0.00 0.00 74 1012.7
20260901183401 76 101 4.0 8.0 0.00 0.00 0.00 74 1012.7
20260901182702 76 103 4.0 8.0 0.00 0.00 0.00 74 1012.8
20260901182429 76 89 4.0 8.0 0.00 0.00 0.00 75 1012.8
20260901182002 76 82 4.0 7.0 0.00 0.00 0.00 76 1012.9
20260901181428 76 92 4.0 6.0 0.00 0.00 0.00 75 1013.1
20260901181300 76 92 4.0 6.0 0.00 0.00 0.00 75 1013.1
20260901180600 75 70 2.0 4.0 0.00 0.00 0.00 76 1013.2
20260901180428 75 60 1.0 3.0 0.00 0.00 0.00 76 1013.3
20260901175900 75 59 2.0 3.0 0.00 0.00 0.00 75 1013.3
20260901175428 75 59 0.0 2.0 0.00 0.00 0.00 75 1013.4
20260901175202 75 59 0.0 2.0 0.00 0.00 0.00 75 1013.4
20260901174500 76 59 2.0 4.0 0.00 0.00 0.00 74 1013.3
20260901174428 76 59 2.0 4.0 0.00 0.00 0.00 74 1013.3
20260901173806 76 59 1.0 4.0 0.00 0.00 0.00 74 1013.4
20260901173428 76 59 2.0 6.0 0.00 0.00 0.00 72 1013.4
20260901173059 76 59 2.0 6.0 0.00 0.00 0.00 72 1013.4
20260901172428 76 92 4.0 7.0 0.00 0.00 0.00 72 1013.2
20260901172402 76 92 4.0 7.0 0.00 0.00 0.00 72 1013.2
20260901171703 76 97 4.0 7.0 0.00 0.00 0.00 72 1013.0
20260901171429 76 91 4.0 6.0 0.00 0.00 0.00 74 1013.2
20260901171000 76 85 3.0 6.0 0.00 0.00 0.00 74 1013.5
20260901170429 76 51 3.0 6.0 0.00 0.00 0.00 74 1013.7
20260901170300 76 51 3.0 6.0 0.00 0.00 0.00 74 1013.7
20260901165604 76 55 3.0 6.0 0.00 0.00 0.00 76 1013.6
20260901165428 76 66 3.0 6.0 0.00 0.00 0.00 77 1013.3
20260901164900 75 68 2.0 5.0 0.00 0.00 0.00 79 1013.4
20260901164428 75 53 1.0 5.0 0.00 0.00 0.00 81 1013.3
20260901164205 75 53 1.0 5.0 0.00 0.00 0.00 81 1013.3
20260901163501 75 70 1.0 3.0 0.00 0.00 0.00 84 1013.2
20260901163428 75 70 1.0 3.0 0.00 0.00 0.00 84 1013.2
20260901162758 74 70 1.0 4.0 0.00 0.00 0.00 85 1013.3
20260901162427 74 31 1.0 4.0 0.00 0.00 0.00 86 1013.4
20260901162100 74 31 1.0 4.0 0.00 0.00 0.00 86 1013.4
20260901161429 73 145 1.0 3.0 0.00 0.00 0.00 88 1013.7
20260901161400 73 145 1.0 3.0 0.00 0.00 0.00 88 1013.7
20260901160700 73 165 1.0 2.0 0.00 0.00 0.00 88 1014.0
20260901160429 72 165 1.0 3.0 0.00 0.00 0.00 89 1014.1
20260901160000 71 165 1.0 3.0 0.00 0.00 0.00 91 1014.1
20260901155428 71 175 1.0 3.0 0.00 0.00 0.00 92 1014.3
20260901155300 71 175 1.0 3.0 0.00 0.00 0.00 92 1014.3
20260901154602 70 232 1.0 2.0 0.00 0.00 0.00 93 1014.3
20260901154427 70 232 1.0 2.0 0.00 0.00 0.00 95 1014.2
20260901153902 69 232 1.0 2.0 0.00 0.00 0.00 96 1014.2
20260901153427 69 233 0.0 0.0 0.00 0.00 0.00 96 1014.1
20260901153159 69 233 0.0 0.0 0.00 0.00 0.00 96 1014.1
20260901152459 68 233 0.0 0.0 0.00 0.00 0.00 97 1014.0
20260901152427 68 233 0.0 0.0 0.00 0.00 0.00 97 1014.0
20260901151801 68 233 0.0 1.0 0.00 0.00 0.00 98 1014.1
20260901151429 68 233 0.0 1.0 0.00 0.00 0.00 99 1013.9
20260901151105 68 233 0.0 1.0 0.00 0.00 0.00 99 1013.9
20260901150429 67 233 0.0 0.0 0.00 0.00 0.00 99 1013.8
20260901150400 67 233 0.0 0.0 0.00 0.00 0.00 99 1013.8
20260901145708 67 233 0.0 1.0 0.00 0.00 0.00 100 1013.7
20260901145429 67 233 0.0 2.0 0.00 0.00 0.00 100 1013.9
20260901145001 67 232 1.0 2.0 0.00 0.00 0.00 100 1013.9
20260901144428 67 232 0.0 2.0 0.00 0.00 0.00 100 1014.0
20260901144301 67 232 0.0 2.0 0.00 0.00 0.00 100 1014.0
20260901143559 67 232 1.0 2.0 0.00 0.00 0.00 100 1014.0
20260901143428 66 232 0.0 2.0 0.00 0.00 0.00 100 1014.0
20260901142900 66 232 0.0 2.0 0.00 0.00 0.00 100 1013.9
20260901142427 66 233 0.0 1.0 0.00 0.00 0.00 100 1014.0
20260901142158 66 233 0.0 1.0 0.00 0.00 0.00 100 1014.0
20260901141501 66 232 0.0 1.0 0.00 0.00 0.00 100 1013.9
20260901141429 66 232 0.0 1.0 0.00 0.00 0.00 100 1013.9
20260901140801 65 232 0.0 1.0 0.00 0.00 0.00 100 1013.8
20260901140429 65 233 0.0 1.0 0.00 0.00 0.00 100 1014.0
20260901135429 64 232 0.0 1.0 0.00 0.00 0.00 100 1014.3
20260901135400 64 232 0.0 1.0 0.00 0.00 0.00 100 1014.3
20260901134428 63 233 0.0 0.0 0.00 0.00 0.00 100 1014.2
20260901134000 63 233 0.0 1.0 0.00 0.00 0.00 100 1014.2
20260901133428 63 232 0.0 1.0 0.00 0.00 0.00 100 1014.3
20260901133303 63 232 0.0 1.0 0.00 0.00 0.00 100 1014.3
20260901132559 63 232 0.0 1.0 0.00 0.00 0.00 100 1014.3
20260901132428 62 233 0.0 0.0 0.00 0.00 0.00 100 1014.2
20260901131903 62 233 0.0 1.0 0.00 0.00 0.00 100 1014.2
20260901131428 62 233 0.0 3.0 0.00 0.00 0.00 100 1014.2
20260901131200 62 233 0.0 3.0 0.00 0.00 0.00 100 1014.2
20260901130502 61 102 2.0 2.0 0.00 0.00 0.00 100 1014.5
20260901130429 61 102 2.0 2.0 0.00 0.00 0.00 100 1014.5
20260901125801 61 102 0.0 0.0 0.00 0.00 0.00 100 1014.2
20260901125429 61 102 0.0 0.0 0.00 0.00 0.00 100 1014.1
20260901125102 61 102 0.0 0.0 0.00 0.00 0.00 100 1014.1
20260901124428 61 102 0.0 0.0 0.00 0.00 0.00 100 1014.1
20260901124400 61 102 0.0 0.0 0.00 0.00 0.00 100 1014.1
20260901123700 60 102 0.0 0.0 0.00 0.00 0.00 100 1014.1
20260901123428 60 102 0.0 0.0 0.00 0.00 0.00 100 1014.0
20260901123003 60 102 0.0 0.0 0.00 0.00 0.00 100 1013.9
20260901122428 60 102 0.0 0.0 0.00 0.00 0.00 100 1014.0
20260901122306 60 102 0.0 0.0 0.00 0.00 0.00 100 1014.0
20260901121603 59 102 0.0 0.0 0.00 0.00 0.00 100 1014.1
20260901121428 59 102 0.0 2.0 0.00 0.00 0.00 100 1014.0
20260901120906 59 102 0.0 2.0 0.00 0.00 0.00 100 1013.9
20260901120428 59 102 0.0 2.0 0.00 0.00 0.00 100 1013.8
20260901120200 59 102 0.0 2.0 0.00 0.00 0.00 100 1013.8
20260901115501 59 102 1.0 2.0 0.00 0.00 0.00 100 1013.7
20260901115428 59 102 1.0 2.0 0.00 0.00 0.00 100 1013.7
20260901114759 59 102 0.0 4.0 0.00 0.00 0.00 100 1013.8
20260901114428 59 102 0.0 4.0 0.00 0.00 0.00 100 1014.0
20260901114102 59 102 0.0 4.0 0.00 0.00 0.00 100 1014.0
20260901113427 59 102 1.0 5.0 0.00 0.00 0.00 100 1013.8
20260901113401 59 102 1.0 5.0 0.00 0.00 0.00 100 1013.8
20260901112704 59 94 2.0 5.0 0.00 0.00 0.00 100 1013.6
20260901112427 59 244 0.0 1.0 0.00 0.00 0.00 100 1013.6
20260901112001 59 245 0.0 0.0 0.00 0.00 0.00 100 1013.3
20260901111427 59 245 0.0 0.0 0.00 0.00 0.00 100 1013.3
20260901111258 59 245 0.0 0.0 0.00 0.00 0.00 100 1013.3
20260901110601 59 245 0.0 0.0 0.00 0.00 0.00 100 1013.5
20260901110428 60 245 0.0 0.0 0.00 0.00 0.00 100 1013.4
20260901105859 60 245 0.0 0.0 0.00 0.00 0.00 100 1013.4
20260901105428 60 245 0.0 0.0 0.00 0.00 0.00 100 1013.5
20260901105201 60 245 0.0 0.0 0.00 0.00 0.00 100 1013.5
20260901104459 60 245 0.0 0.0 0.00 0.00 0.00 100 1013.2
20260901104428 60 245 0.0 0.0 0.00 0.00 0.00 100 1013.2
20260901103427 60 245 0.0 0.0 0.00 0.00 0.00 100 1013.2
20260901103100 60 245 0.0 0.0 0.00 0.00 0.00 100 1013.2
20260901102427 60 245 0.0 0.0 0.00 0.00 0.00 100 1013.1
20260901102401 60 245 0.0 0.0 0.00 0.00 0.00 100 1013.1
20260901101700 60 245 0.0 0.0 0.00 0.00 0.00 100 1013.1
20260901101428 60 245 0.0 0.0 0.00 0.00 0.00 100 1013.1
20260901101002 60 245 0.0 0.0 0.00 0.00 0.00 100 1013.2
20260901100428 60 245 0.0 1.0 0.00 0.00 0.00 100 1013.1
20260901100302 60 245 0.0 1.0 0.00 0.00 0.00 100 1013.1
20260901095602 60 244 0.0 2.0 0.00 0.00 0.00 100 1013.0
20260901095428 61 245 0.0 4.0 0.00 0.00 0.00 100 1012.9
20260901094900 61 198 1.0 4.0 0.00 0.00 0.00 100 1012.9
20260901094428 61 360 0.0 0.0 0.00 0.00 0.00 100 1012.8
20260901094203 61 360 0.0 0.0 0.00 0.00 0.00 100 1012.8
20260901093459 61 360 0.0 0.0 0.00 0.00 0.00 100 1012.7
20260901093428 61 360 0.0 0.0 0.00 0.00 0.00 100 1012.7
20260901092802 61 360 0.0 0.0 0.00 0.00 0.00 100 1012.5
20260901092427 61 360 0.0 0.0 0.00 0.00 0.00 100 1012.6
20260901092059 61 360 0.0 0.0 0.00 0.00 0.00 100 1012.6
20260901091427 62 360 0.0 0.0 0.00 0.00 0.00 100 1012.7
20260901091402 62 360 0.0 0.0 0.00 0.00 0.00 100 1012.7
20260901090659 62 360 0.0 0.0 0.00 0.00 0.00 100 1012.6
20260901090427 62 360 0.0 0.0 0.00 0.00 0.00 100 1012.6
20260901085959 62 360 0.0 0.0 0.00 0.00 0.00 100 1012.7
20260901085427 62 360 0.0 0.0 0.00 0.00 0.00 100 1012.5
20260901085306 62 360 0.0 0.0 0.00 0.00 0.00 100 1012.5
20260901084559 62 360 0.0 0.0 0.00 0.00 0.00 100 1012.6
20260901084427 62 360 0.0 0.0 0.00 0.00 0.00 100 1012.6
20260901083901 62 360 0.0 0.0 0.00 0.00 0.00 100 1012.6
20260901083428 62 360 0.0 0.0 0.00 0.00 0.00 100 1012.5
20260901083200 62 360 0.0 0.0 0.00 0.00 0.00 100 1012.5
20260901082500 62 360 0.0 0.0 0.00 0.00 0.00 100 1012.6
20260901082428 62 360 0.0 0.0 0.00 0.00 0.00 100 1012.6
20260901081800 62 360 0.0 0.0 0.00 0.00 0.00 100 1012.8
20260901081427 62 360 0.0 0.0 0.00 0.00 0.00 100 1012.7
20260901081059 62 360 0.0 0.0 0.00 0.00 0.00 100 1012.7
20260901080427 63 360 0.0 2.0 0.00 0.00 0.00 100 1012.7
20260901080400 63 360 0.0 2.0 0.00 0.00 0.00 100 1012.7
20260901075659 63 360 0.0 2.0 0.00 0.00 0.00 100 1012.8
20260901075427 63 320 0.0 0.0 0.00 0.00 0.00 100 1012.9
20260901074959 63 320 0.0 0.0 0.00 0.00 0.00 100 1012.9
20260901074427 63 320 0.0 0.0 0.00 0.00 0.00 100 1012.9
20260901074301 63 320 0.0 0.0 0.00 0.00 0.00 100 1012.9
20260901073602 63 320 0.0 0.0 0.00 0.00 0.00 100 1012.8
20260901073429 63 320 0.0 0.0 0.00 0.00 0.00 100 1012.8
20260901072900 63 320 0.0 0.0 0.00 0.00 0.00 100 1012.8
20260901072429 63 320 0.0 0.0 0.00 0.00 0.00 100 1012.9
20260901072203 63 320 0.0 0.0 0.00 0.00 0.00 100 1012.9
20260901071500 64 320 0.0 3.0 0.00 0.00 0.00 100 1012.9
20260901071428 64 320 0.0 3.0 0.00 0.00 0.00 100 1012.9
20260901070801 64 319 0.0 1.0 0.00 0.00 0.00 100 1013.0
20260901070428 64 320 0.0 0.0 0.00 0.00 0.00 100 1013.1
20260901070100 64 320 0.0 0.0 0.00 0.00 0.00 100 1013.1
20260901065428 64 320 0.0 0.0 0.00 0.00 0.00 100 1013.3
20260901065400 64 320 0.0 0.0 0.00 0.00 0.00 100 1013.3
20260901064659 65 320 0.0 0.0 0.00 0.00 0.00 100 1013.2
20260901064427 65 320 0.0 0.0 0.00 0.00 0.00 100 1013.3
20260901064001 65 320 0.0 0.0 0.00 0.00 0.00 100 1013.3
20260901063427 65 320 0.0 0.0 0.00 0.00 0.00 100 1013.5
20260901063259 65 320 0.0 0.0 0.00 0.00 0.00 100 1013.5